This is the latest recevied weather packets stored in our database for station/object KC8ZBC. If no packets are shown the sender has not sent any weather packets the latest 10 day(s).
| Time | Temp. | Humidity | Pressure | Rain* | Wind** | Luminosity | Snow |
|---|---|---|---|---|---|---|---|
| 1777851041 | 14.44° C | 51% | 983.3 hPa | 0 mm | - | 24 W/m² | - |
| 1777850738 | 14.44° C | 50% | 983.4 hPa | 0 mm | - | 29 W/m² | - |
| 1777850435 | 14.44° C | 50% | 983.3 hPa | 0 mm | - | 31 W/m² | - |
| 1777850133 | 14.44° C | 50% | 983.5 hPa | 0 mm | - | 32 W/m² | - |
| 1777849829 | 14.44° C | 50% | 983.4 hPa | 0 mm | - | 18 W/m² | - |
| 1777849526 | 14.44° C | 49% | 983.4 hPa | 0 mm | - | 13 W/m² | - |
| 1777849224 | 14.44° C | 49% | 983.7 hPa | 0 mm | - | 17 W/m² | - |
| 1777848920 | 15° C | 49% | 983.8 hPa | 0 mm | - | 15 W/m² | - |
| 1777848615 | 15° C | 49% | 983.6 hPa | 0 mm | - | 17 W/m² | - |
| 1777848313 | 15° C | 47% | 983.6 hPa | 0 mm | - | 24 W/m² | - |
| 1777848011 | 15° C | 47% | 983.7 hPa | 0 mm | - | 27 W/m² | - |
| 1777847709 | 15° C | 47% | 983.7 hPa | 0 mm | - | 32 W/m² | - |
| 1777847404 | 15.56° C | 47% | 983.8 hPa | 0 mm | - | 39 W/m² | - |
| 1777847102 | 15.56° C | 47% | 983.7 hPa | 0 mm | - | 51 W/m² | - |
| 1777846800 | 15.56° C | 46% | 983.7 hPa | 0 mm | - | 57 W/m² | - |
| 1777846498 | 16.11° C | 45% | 983.9 hPa | 0 mm | - | 51 W/m² | - |
| 1777846195 | 16.67° C | 43% | 983.5 hPa | 0 mm | - | 79 W/m² | - |
| 1777845891 | 15.56° C | 44% | 983.7 hPa | 0 mm | - | 191 W/m² | - |
| 1777845588 | 16.11° C | 44% | 983.6 hPa | 0 mm | - | 71 W/m² | - |
| 1777845285 | 16.11° C | 44% | 983.5 hPa | 0 mm | - | 181 W/m² | - |
| 1777844983 | 16.11° C | 45% | 983.9 hPa | 0 mm | - | 83 W/m² | - |
| 1777844680 | 15.56° C | 44% | 983.6 hPa | 0 mm | - | 102 W/m² | - |
| 1777844377 | 16.11° C | 45% | 983.8 hPa | 0 mm | - | 91 W/m² | - |
| 1777844076 | 16.11° C | 44% | 983.5 hPa | 0 mm | - | 102 W/m² | - |
| 1777843772 | 15.56° C | 43% | 983.6 hPa | 0 mm | - | 103 W/m² | - |
* Rain latest hour (hover to see other rain measurements)
** Current wind speed in m/s (hover to see current wind gust speed)